{"data":{"norad_id":44718,"epoch":"2026-09-20T04:24:04.965120Z","epoch_age_seconds":45544,"freshness":"FRESH","line1":"1 44718U 19074F   26263.18339080  .00029833  00000+0  29897-3 0  9998","line2":"2 44718  53.1499 328.7705 0004572   0.0769   0.0247 15.65297482379011","mean_motion":15.65297482,"eccentricity":0.0004572,"inclination_deg":53.1499,"raan_deg":328.7705,"arg_perigee_deg":0.0769,"mean_anomaly_deg":0.0247,"bstar":0.00029897,"rev_number":37901,"period_min":91.995292687758,"perigee_km":369.29700313854,"apogee_km":375.46967893838,"semimajor_km":6750.5203410385,"source":"CELESTRAK","updated_at":"2026-09-20T09:00:38.218182Z"}}